Location: Nitra
(0.0000°N, 18.0833°E)
Time: 13:16:30
(UTC+02:00)

DELTA 2 R/B (1) - Visible Passes

Search period start: 14 May 2021 00:00
Search period end: 24 May 2021 00:00
Orbit: 790 x 803 km, 39.6° (Epoch: 13 May)

Date Brightness Start Highest point End Pass type
(mag) Time Alt. Az. Time Alt. Az. Time Alt. Az.
17 May 6.3 21:38:40 10° NNW 21:38:54 11° NNW 21:38:54 11° NNW visible
18 May 5.7 21:07:56 10° NNW 21:09:44 18° N 21:09:44 18° N visible
19 May 5.2 20:37:13 10° N 20:40:36 22° NNE 20:40:36 22° NNE visible
20 May 5.1 20:06:32 10° N 20:10:36 20° NE 20:11:32 20° NE visible
20 May 6.3 21:51:31 10° WNW 21:52:19 14° WNW 21:52:19 14° WNW visible
21 May 5.3 19:35:55 10° N 19:39:38 18° NE 19:42:31 13° ENE visible
21 May 5.2 21:20:31 10° NW 21:23:18 30° WNW 21:23:18 30° WNW visible
22 May 5.4 19:05:20 10° N 19:08:40 16° NE 19:12:00 10° ENE visible
22 May 3.8 20:49:32 10° NW 20:54:20 64° W 20:54:20 64° W visible
23 May 3.5 20:18:35 10° NW 20:24:09 85° SW 20:25:23 56° SE visible
